TimeEST,TemperatureF,Dew PointF,Humidity,Sea Level PressureIn,VisibilityMPH,Wind Direction,Wind SpeedMPH,Gust SpeedMPH,PrecipitationIn,Events,Conditions,WindDirDegrees,DateUTC
12:53 AM,64.0,46.9,54,29.95,10.0,SW,12.7,18.4,N/A,,Overcast,220,2012-12-05 05:53:00
1:53 AM,61.0,48.0,62,30.00,10.0,NW,15.0,23.0,N/A,,Overcast,310,2012-12-05 06:53:00
2:05 AM,59.0,48.2,67,30.00,10.0,NW,17.3,20.7,N/A,,Overcast,310,2012-12-05 07:05:00
2:53 AM,55.9,48.0,75,30.02,10.0,NW,6.9,-,0.00,,Overcast,310,2012-12-05 07:53:00
3:53 AM,54.0,42.1,64,30.04,10.0,NNW,10.4,-,N/A,,Mostly Cloudy,340,2012-12-05 08:53:00
4:53 AM,53.1,42.1,66,30.05,10.0,Calm,Calm,-,N/A,,Overcast,0,2012-12-05 09:53:00
5:53 AM,52.0,39.0,61,30.08,10.0,NW,6.9,-,N/A,,Overcast,310,2012-12-05 10:53:00
6:53 AM,48.9,35.1,59,30.11,10.0,WNW,9.2,-,N/A,,Clear,290,2012-12-05 11:53:00
7:53 AM,48.0,34.0,58,30.12,10.0,West,6.9,-,N/A,,Clear,280,2012-12-05 12:53:00
9:53 AM,50.0,33.1,52,30.14,10.0,WNW,9.2,-,N/A,,Clear,290,2012-12-05 14:53:00
10:53 AM,48.0,32.0,54,30.14,10.0,NW,11.5,-,N/A,,Clear,310,2012-12-05 15:53:00
11:53 AM,53.1,30.9,43,30.13,10.0,WNW,10.4,20.7,N/A,,Clear,290,2012-12-05 16:53:00
12:53 PM,52.0,30.0,43,30.12,10.0,WNW,15.0,24.2,N/A,,Clear,300,2012-12-05 17:53:00
1:53 PM,52.0,30.0,43,30.12,10.0,NW,15.0,24.2,N/A,,Clear,310,2012-12-05 18:53:00
2:53 PM,51.1,28.9,43,30.14,10.0,WNW,13.8,24.2,N/A,,Clear,300,2012-12-05 19:53:00
3:53 PM,48.0,28.0,46,30.17,10.0,NNW,11.5,19.6,N/A,,Scattered Clouds,330,2012-12-05 20:53:00
4:53 PM,44.1,27.0,51,30.19,10.0,NW,11.5,21.9,N/A,,Clear,310,2012-12-05 21:53:00
5:53 PM,43.0,25.0,49,30.23,10.0,NW,8.1,19.6,N/A,,Mostly Cloudy,320,2012-12-05 22:53:00
6:53 PM,39.9,24.1,53,30.26,10.0,NNW,9.2,-,N/A,,Partly Cloudy,340,2012-12-05 23:53:00
7:53 PM,37.9,19.9,48,30.29,10.0,NNW,9.2,18.4,N/A,,Clear,340,2012-12-06 00:53:00
8:53 PM,37.0,19.0,48,30.30,10.0,Calm,Calm,-,N/A,,Clear,0,2012-12-06 01:53:00
9:53 PM,35.1,21.0,57,30.30,10.0,West,3.5,-,N/A,,Clear,270,2012-12-06 02:53:00
10:53 PM,32.0,21.9,66,30.32,10.0,WSW,3.5,-,N/A,,Clear,240,2012-12-06 03:53:00
11:53 PM,34.0,21.0,59,30.32,10.0,WNW,5.8,-,N/A,,Clear,290,2012-12-06 04:53:00